Notices

What's New in latest Release from April 7th, 2021:

- Updated Glossary, including Speed of Maximum Gust, and Total Hourly Precipitation

- Updated national and regional climate services offices contacts and prices information

- Addition of station inventory lists for 1981-2010, 1971-2000, and 1961-1990 Normals.

If you haven't already, please take our survey and provide feedback about our website: https://eccc.sondage-survey.ca/f/LanguageSelection.aspx?s=442ca660-fcf1-47c0-95a9-59707d6fd709

Hourly Data Report for April 19, 2020

MIRAMICHI RCS
NEW BRUNSWICK
Current Station Operator: ECCC - MSC

47°00'34.000" N
65°27'54.000" W
33.00 m
8100989
71744
ACQ

Download Data

Hourly Data (April 2020)
Hourly Data Report for April 19, 2020
TIME
LST
Temp Definition
°C
Dew Point Definition
°C
Rel Hum Definition
%
Precip. Amount Definition
mm

Wind Dir Definition
10's deg

Wind Spd Definition
km/h
Visibility Definition
km
Stn Press Definition
kPa
Hmdx Definition


Wind Chill Definition


Weather Definition


00:00 -2.2 -6.0 75 LegendMM 2 5   100.43   -4 LegendNANA
01:00 -2.4 -5.9 77 LegendMM 36 5   100.40   -4 LegendNANA
02:00 -4.3 -6.6 84 LegendMM 33 4   100.35   -6 LegendNANA
03:00 -3.8 -6.2 83 LegendMM 35 7   100.33   -7 LegendNANA
04:00 -4.1 -6.5 84 LegendMM 35 4   100.29   -6 LegendNANA
05:00 -4.3 -6.1 87 LegendMM 36 4   100.24   -6 LegendNANA
06:00 -5.1 -6.4 91 LegendMM 33 2   100.26   -6 LegendNANA
07:00 -2.0 -4.8 81 LegendMM 33 2   100.25   -3 LegendNANA
08:00 0.5 -5.1 66 LegendMM 1 6   100.22     LegendNANA
09:00 2.4 -5.5 56 LegendMM 10 12   100.20     LegendNANA
10:00 3.6 -8.9 40 LegendMM 7 9   100.17     LegendNANA
11:00 4.5 -7.7 41 LegendMM 11 11   100.09     LegendNANA
12:00 5.2 -6.0 44 LegendMM 10 7   100.01     LegendNANA
13:00 6.5 -5.1 43 LegendMM 8 10   99.89     LegendNANA
14:00 7.2 -5.8 39 LegendMM 7 15   99.80     LegendNANA
15:00 7.5 -6.2 37 LegendMM 7 16   99.69     LegendNANA
16:00 7.9 -5.0 40 LegendMM 7 18   99.60     LegendNANA
17:00 5.8 -5.7 43 LegendMM 5 17   99.59     LegendNANA
18:00 6.0 -5.3 44 LegendMM 11 22   99.56     LegendNANA
19:00 3.3 -7.2 46 LegendMM 11 21   99.59     LegendNANA
20:00 0.9 -6.8 56 LegendMM 9 14   99.63     LegendNANA
21:00 0.0 -6.2 63 LegendMM 6 11   99.63   -4 LegendNANA
22:00 -0.5 -4.6 74 LegendMM 6 10   99.57   -4 LegendNANA
23:00 -0.2 -5.1 69 LegendMM 6 9   99.50   -3 LegendNANA

Notes on Data Quality.

Legend

  • E = Estimated
  • M = Missing
  • NA = Not Available*
  • [empty] = Indicates an unobserved value
Date modified: